Tracking 19709 objects as of 17-Jun-2019
HD Live streaming from Space Station
objects crossing your sky now

THORAD AGENA D DEB

Track THORAD AGENA D DEB now!
10-day predictions


NORAD ID: 18513
Int'l Code: 1970-025PN
Perigee: 806.4 km
Apogee: 891.7 km
Inclination: 99.8 °
Period: 101.8 minutes
Semi major axis: 7220 km
RCS: 0.0038 m2 (small)
Launch date: April 8, 1970
Source: United States (US)
Launch site: AIR FORCE WESTERN TEST RANGE (AFWTR)

Note: This is SATELLITE DEBRIS
aabbcc
Your satellite tracking list
Your tracking list is empty




NASA's NSSDC Master Catalog

Two Line Element Set (TLE):
1 18513U 70025PN  19167.86052517 +.00000278 +00000-0 +16726-3 0  9992
2 18513 099.7612 142.7184 0059101 356.8683 062.1329 14.15116838762035
Source of the keplerian elements: AFSPC